Year,Month,Day,Hour,Minute,Value (Times are PST for temperature in C)
2018,04,25,00,00,11.10
2018,04,25,00,01,11.10
2018,04,25,00,02,11.10
2018,04,25,00,03,11.10
2018,04,25,00,04,11.00
2018,04,25,00,05,11.00
2018,04,25,00,06,10.90
2018,04,25,00,07,10.90
2018,04,25,00,08,10.90
2018,04,25,00,09,10.90
2018,04,25,00,10,10.90
2018,04,25,00,11,10.90
2018,04,25,00,12,10.90
2018,04,25,00,13,10.90
2018,04,25,00,14,11.00
2018,04,25,00,15,11.00
2018,04,25,00,16,11.00
2018,04,25,00,17,11.00
2018,04,25,00,18,11.00
2018,04,25,00,19,11.00
2018,04,25,00,20,11.00
2018,04,25,00,21,10.90
2018,04,25,00,22,10.90
2018,04,25,00,23,10.90
2018,04,25,00,24,10.90
2018,04,25,00,25,10.80
2018,04,25,00,26,10.80
2018,04,25,00,27,10.80
2018,04,25,00,28,10.80
2018,04,25,00,29,10.80
2018,04,25,00,30,10.80
2018,04,25,00,31,10.80
2018,04,25,00,32,10.80
2018,04,25,00,33,10.80
2018,04,25,00,34,10.80
2018,04,25,00,35,10.70
2018,04,25,00,36,10.70
2018,04,25,00,37,10.70
2018,04,25,00,38,10.70
2018,04,25,00,39,10.70
2018,04,25,00,40,10.70
2018,04,25,00,41,10.70
2018,04,25,00,42,10.60
2018,04,25,00,43,10.60
2018,04,25,00,44,10.60
2018,04,25,00,45,10.60
2018,04,25,00,46,10.50
2018,04,25,00,47,10.50
2018,04,25,00,48,10.50
2018,04,25,00,49,10.50
2018,04,25,00,50,10.40
2018,04,25,00,51,10.40
2018,04,25,00,52,10.40
2018,04,25,00,53,10.40
2018,04,25,00,54,10.40
2018,04,25,00,55,10.30
2018,04,25,00,56,10.30
2018,04,25,00,57,10.30
2018,04,25,00,58,10.30
2018,04,25,00,59,10.30
2018,04,25,01,00,10.30
2018,04,25,01,01,10.20
2018,04,25,01,02,10.20
2018,04,25,01,03,10.20
2018,04,25,01,04,10.20
2018,04,25,01,05,10.20
2018,04,25,01,06,10.20
2018,04,25,01,07,10.20
2018,04,25,01,08,10.10
2018,04,25,01,09,10.10
2018,04,25,01,10,10.00
2018,04,25,01,11,10.00
2018,04,25,01,12,10.00
2018,04,25,01,13,10.00
2018,04,25,01,14,9.90
2018,04,25,01,15,9.90
2018,04,25,01,16,9.90
2018,04,25,01,17,9.90
2018,04,25,01,18,9.90
2018,04,25,01,19,9.90
2018,04,25,01,20,9.90
2018,04,25,01,21,9.90
2018,04,25,01,22,9.90
2018,04,25,01,23,9.80
2018,04,25,01,24,9.80
2018,04,25,01,25,9.80
2018,04,25,01,26,9.80
2018,04,25,01,27,9.80
2018,04,25,01,28,9.80
2018,04,25,01,29,9.80
2018,04,25,01,30,9.80
2018,04,25,01,31,9.70
2018,04,25,01,32,9.70
2018,04,25,01,33,9.70
2018,04,25,01,34,9.70
2018,04,25,01,35,9.70
2018,04,25,01,36,9.70
2018,04,25,01,37,9.60
2018,04,25,01,38,9.60
2018,04,25,01,39,9.60
2018,04,25,01,40,9.60
2018,04,25,01,41,9.60
2018,04,25,01,42,9.60
2018,04,25,01,43,9.60
2018,04,25,01,44,9.60
2018,04,25,01,45,9.60
2018,04,25,01,46,9.60
2018,04,25,01,47,9.60
2018,04,25,01,48,9.60
2018,04,25,01,49,9.60
2018,04,25,01,50,9.60
2018,04,25,01,51,9.60
2018,04,25,01,52,9.60
2018,04,25,01,53,9.60
2018,04,25,01,54,9.50
2018,04,25,01,55,9.50
2018,04,25,01,56,9.50
2018,04,25,01,57,9.40
2018,04,25,01,58,9.40
2018,04,25,01,59,9.40
2018,04,25,02,00,9.40
2018,04,25,02,01,9.40
2018,04,25,02,02,9.40
2018,04,25,02,03,9.40
2018,04,25,02,04,9.40
2018,04,25,02,05,9.40
2018,04,25,02,06,9.40
2018,04,25,02,07,9.40
2018,04,25,02,08,9.40
2018,04,25,02,09,9.40
2018,04,25,02,10,9.30
2018,04,25,02,11,9.30
2018,04,25,02,12,9.30
2018,04,25,02,13,9.30
2018,04,25,02,14,9.30
2018,04,25,02,15,9.30
2018,04,25,02,16,9.30
2018,04,25,02,17,9.30
2018,04,25,02,18,9.30
2018,04,25,02,19,9.30
2018,04,25,02,20,9.20
2018,04,25,02,21,9.20
2018,04,25,02,22,9.20
2018,04,25,02,23,9.20
2018,04,25,02,24,9.20
2018,04,25,02,25,9.20
2018,04,25,02,26,9.20
2018,04,25,02,27,9.10
2018,04,25,02,28,9.10
2018,04,25,02,29,9.10
2018,04,25,02,30,9.10
2018,04,25,02,31,9.10
2018,04,25,02,32,9.10
2018,04,25,02,33,9.10
2018,04,25,02,34,9.10
2018,04,25,02,35,9.10
2018,04,25,02,36,9.10
2018,04,25,02,37,9.10
2018,04,25,02,38,9.10
2018,04,25,02,39,9.10
2018,04,25,02,40,9.10
2018,04,25,02,41,9.00
2018,04,25,02,42,9.00
2018,04,25,02,43,9.00
2018,04,25,02,44,9.00
2018,04,25,02,45,9.00
2018,04,25,02,46,8.90
2018,04,25,02,47,8.90
2018,04,25,02,48,8.90
2018,04,25,02,49,8.90
2018,04,25,02,50,8.90
2018,04,25,02,51,8.90
2018,04,25,02,52,8.90
2018,04,25,02,53,8.90
2018,04,25,02,54,8.90
2018,04,25,02,55,8.90
2018,04,25,02,56,8.80
2018,04,25,02,57,8.80
2018,04,25,02,58,8.80
2018,04,25,02,59,8.80
2018,04,25,03,00,8.80
2018,04,25,03,01,8.80
2018,04,25,03,02,8.80
2018,04,25,03,03,8.80
2018,04,25,03,04,8.80
2018,04,25,03,05,8.80
2018,04,25,03,06,8.80
2018,04,25,03,07,8.80
2018,04,25,03,08,8.80
2018,04,25,03,09,8.80
2018,04,25,03,10,8.80
2018,04,25,03,11,8.80
2018,04,25,03,12,8.80
2018,04,25,03,13,8.80
2018,04,25,03,14,8.80
2018,04,25,03,15,8.80
2018,04,25,03,16,8.80
2018,04,25,03,17,8.70
2018,04,25,03,18,8.70
2018,04,25,03,19,8.70
2018,04,25,03,20,8.70
2018,04,25,03,21,8.70
2018,04,25,03,22,8.70
2018,04,25,03,23,8.70
2018,04,25,03,24,8.70
2018,04,25,03,25,8.70
2018,04,25,03,26,8.60
2018,04,25,03,27,8.70
2018,04,25,03,28,8.70
2018,04,25,03,29,8.70
2018,04,25,03,30,8.70
2018,04,25,03,31,8.70
2018,04,25,03,32,8.60
2018,04,25,03,33,8.60
2018,04,25,03,34,8.60
2018,04,25,03,35,8.60
2018,04,25,03,36,8.50
2018,04,25,03,37,8.50
2018,04,25,03,38,8.50
2018,04,25,03,39,8.40
2018,04,25,03,40,8.40
2018,04,25,03,41,8.40
2018,04,25,03,42,8.40
2018,04,25,03,43,8.40
2018,04,25,03,44,8.30
2018,04,25,03,45,8.30
2018,04,25,03,46,8.30
2018,04,25,03,47,8.30
2018,04,25,03,48,8.30
2018,04,25,03,49,8.30
2018,04,25,03,50,8.30
2018,04,25,03,51,8.30
2018,04,25,03,52,8.30
2018,04,25,03,53,8.30
2018,04,25,03,54,8.30
2018,04,25,03,55,8.30
2018,04,25,03,56,8.30
2018,04,25,03,57,8.20
2018,04,25,03,58,8.20
2018,04,25,03,59,8.20
2018,04,25,04,00,8.20
2018,04,25,04,01,8.20
2018,04,25,04,02,8.20
2018,04,25,04,03,8.10
2018,04,25,04,04,8.10
2018,04,25,04,05,8.10
2018,04,25,04,06,8.10
2018,04,25,04,07,8.10
2018,04,25,04,08,8.10
2018,04,25,04,09,8.10
2018,04,25,04,10,8.00
2018,04,25,04,11,8.00
2018,04,25,04,12,8.00
2018,04,25,04,13,7.90
2018,04,25,04,14,7.90
2018,04,25,04,15,7.90
2018,04,25,04,16,7.90
2018,04,25,04,17,7.80
2018,04,25,04,18,7.80
2018,04,25,04,19,7.80
2018,04,25,04,20,7.80
2018,04,25,04,21,7.80
2018,04,25,04,22,7.80
2018,04,25,04,23,7.80
2018,04,25,04,24,7.90
2018,04,25,04,25,7.90
2018,04,25,04,26,7.90
2018,04,25,04,27,7.90
2018,04,25,04,28,7.90
2018,04,25,04,29,7.80
2018,04,25,04,30,7.80
2018,04,25,04,31,7.80
2018,04,25,04,32,7.80
2018,04,25,04,33,7.80
2018,04,25,04,34,7.80
2018,04,25,04,35,7.80
2018,04,25,04,36,7.80
2018,04,25,04,37,7.80
2018,04,25,04,38,7.80
2018,04,25,04,39,7.80
2018,04,25,04,40,7.80
2018,04,25,04,41,7.70
2018,04,25,04,42,7.70
2018,04,25,04,43,7.70
2018,04,25,04,44,7.70
2018,04,25,04,45,7.70
2018,04,25,04,46,7.70
2018,04,25,04,47,7.70
2018,04,25,04,48,7.60
2018,04,25,04,49,7.60
2018,04,25,04,50,7.60
2018,04,25,04,51,7.60
2018,04,25,04,52,7.50
2018,04,25,04,53,7.50
2018,04,25,04,54,7.50
2018,04,25,04,55,7.50
2018,04,25,04,56,7.50
2018,04,25,04,57,7.50
2018,04,25,04,58,7.50
2018,04,25,04,59,7.50
2018,04,25,05,00,7.60
2018,04,25,05,01,7.50
2018,04,25,05,02,7.50
2018,04,25,05,03,7.50
2018,04,25,05,04,7.50
2018,04,25,05,05,7.40
2018,04,25,05,06,7.40
2018,04,25,05,07,7.40
2018,04,25,05,08,7.40
2018,04,25,05,09,7.40
2018,04,25,05,10,7.40
2018,04,25,05,11,7.50
2018,04,25,05,12,7.50
2018,04,25,05,13,7.50
2018,04,25,05,14,7.50
2018,04,25,05,15,7.40
2018,04,25,05,16,7.40
2018,04,25,05,17,7.40
2018,04,25,05,18,7.40
2018,04,25,05,19,7.30
2018,04,25,05,20,7.30
2018,04,25,05,21,7.30
2018,04,25,05,22,7.30
2018,04,25,05,23,7.30
2018,04,25,05,24,7.30
2018,04,25,05,25,7.40
2018,04,25,05,26,7.40
2018,04,25,05,27,7.40
2018,04,25,05,28,7.40
2018,04,25,05,29,7.40
2018,04,25,05,30,7.40
2018,04,25,05,31,7.40
2018,04,25,05,32,7.40
2018,04,25,05,33,7.40
2018,04,25,05,34,7.40
2018,04,25,05,35,7.40
2018,04,25,05,36,7.40
2018,04,25,05,37,7.40
2018,04,25,05,38,7.40
2018,04,25,05,39,7.30
2018,04,25,05,40,7.30
2018,04,25,05,41,7.30
2018,04,25,05,42,7.30
2018,04,25,05,43,7.30
2018,04,25,05,44,7.30
2018,04,25,05,45,7.30
2018,04,25,05,46,7.30
2018,04,25,05,47,7.30
2018,04,25,05,48,7.30
2018,04,25,05,49,7.30
2018,04,25,05,50,7.30
2018,04,25,05,51,7.30
2018,04,25,05,52,7.30
2018,04,25,05,53,7.30
2018,04,25,05,54,7.30
2018,04,25,05,55,7.30
2018,04,25,05,56,7.30
2018,04,25,05,57,7.30
2018,04,25,05,58,7.30
2018,04,25,05,59,7.30
2018,04,25,06,00,7.20
2018,04,25,06,01,7.20
2018,04,25,06,02,7.20
2018,04,25,06,03,7.20
2018,04,25,06,04,7.20
2018,04,25,06,05,7.20
2018,04,25,06,06,7.20
2018,04,25,06,07,7.20
2018,04,25,06,08,7.20
2018,04,25,06,09,7.20
2018,04,25,06,10,7.20
2018,04,25,06,11,7.20
2018,04,25,06,12,7.20
2018,04,25,06,13,7.20
2018,04,25,06,14,7.20
2018,04,25,06,15,7.20
2018,04,25,06,16,7.20
2018,04,25,06,17,7.20
2018,04,25,06,18,7.20
2018,04,25,06,19,7.20
2018,04,25,10,34,16.80
2018,04,25,10,35,16.80
2018,04,25,10,36,16.80
2018,04,25,10,37,16.80
2018,04,25,10,38,16.80
2018,04,25,10,39,16.80
2018,04,25,10,40,16.80
2018,04,25,10,41,16.80
2018,04,25,10,42,16.80
2018,04,25,10,43,16.80
2018,04,25,10,44,16.80
2018,04,25,10,45,16.80
2018,04,25,10,46,16.90
2018,04,25,10,47,16.90
2018,04,25,10,48,16.90
2018,04,25,10,49,16.80
2018,04,25,10,50,16.90
2018,04,25,10,51,16.90
2018,04,25,10,52,16.90
2018,04,25,10,53,16.90
2018,04,25,10,54,16.90
2018,04,25,10,55,16.90
2018,04,25,10,56,16.80
2018,04,25,10,57,16.80
2018,04,25,10,58,16.80
2018,04,25,10,59,16.80
2018,04,25,11,00,16.80
2018,04,25,11,01,16.90
2018,04,25,11,02,16.90
2018,04,25,11,03,17.00
2018,04,25,11,04,17.00
2018,04,25,11,05,17.10
2018,04,25,11,06,17.10
2018,04,25,11,07,17.00
2018,04,25,11,08,17.00
2018,04,25,11,09,17.00
2018,04,25,11,10,17.00
2018,04,25,11,11,17.00
2018,04,25,11,12,17.00
2018,04,25,11,13,17.00
2018,04,25,11,14,17.00
2018,04,25,11,15,17.00
2018,04,25,11,16,17.00
2018,04,25,11,17,17.00
2018,04,25,11,18,17.10
2018,04,25,11,19,17.10
2018,04,25,11,20,17.10
2018,04,25,11,21,17.10
2018,04,25,11,22,17.20
2018,04,25,11,23,17.20
2018,04,25,11,24,17.20
2018,04,25,11,25,17.20
2018,04,25,11,26,17.20
2018,04,25,11,27,17.20
2018,04,25,11,28,17.20
2018,04,25,11,29,17.20
2018,04,25,11,30,17.20
2018,04,25,11,31,17.20
2018,04,25,11,32,17.20
2018,04,25,11,33,17.20
2018,04,25,11,34,17.20
2018,04,25,11,35,17.20
2018,04,25,11,36,17.20
2018,04,25,11,37,17.30
2018,04,25,11,38,17.30
2018,04,25,11,39,17.30
2018,04,25,11,40,17.30
2018,04,25,11,41,17.40
2018,04,25,11,42,17.40
2018,04,25,11,43,17.40
2018,04,25,11,44,17.40
2018,04,25,11,45,17.40
2018,04,25,11,46,17.40
2018,04,25,11,47,17.40
2018,04,25,11,48,17.40
2018,04,25,11,49,17.40
2018,04,25,11,50,17.40
2018,04,25,11,51,17.40
2018,04,25,11,52,17.40
2018,04,25,11,53,17.40
2018,04,25,11,54,17.40
2018,04,25,11,55,17.40
2018,04,25,11,56,17.40
2018,04,25,11,57,17.40
2018,04,25,11,58,17.40
2018,04,25,11,59,17.40
2018,04,25,12,00,17.40
2018,04,25,12,01,17.40
2018,04,25,12,02,17.40
2018,04,25,12,03,17.50
2018,04,25,12,04,17.50
2018,04,25,12,05,17.50
2018,04,25,12,06,17.50
2018,04,25,12,07,17.60
2018,04,25,12,08,17.60
2018,04,25,12,09,17.60
2018,04,25,12,10,17.60
2018,04,25,12,11,17.60
2018,04,25,12,12,17.60
2018,04,25,12,13,17.70
2018,04,25,12,14,17.70
2018,04,25,12,15,17.70
2018,04,25,12,16,17.70
2018,04,25,12,17,17.70
2018,04,25,12,18,17.70
2018,04,25,12,19,17.70
2018,04,25,12,20,17.60
2018,04,25,12,21,17.60
2018,04,25,12,22,17.60
2018,04,25,12,23,17.60
2018,04,25,12,24,17.60
2018,04,25,12,25,17.60
2018,04,25,12,26,17.70
2018,04,25,12,27,17.70
2018,04,25,12,28,17.70
2018,04,25,12,29,17.60
2018,04,25,12,30,17.60
2018,04,25,12,31,17.60
2018,04,25,12,32,17.60
2018,04,25,12,33,17.70
2018,04,25,12,34,17.70
2018,04,25,12,35,17.70
2018,04,25,12,36,17.70
2018,04,25,12,37,17.80
2018,04,25,12,38,17.80
2018,04,25,12,39,17.80
2018,04,25,12,40,17.80
2018,04,25,12,41,17.70
2018,04,25,12,42,17.70
2018,04,25,12,43,17.80
2018,04,25,12,44,17.80
2018,04,25,12,45,17.80
2018,04,25,12,46,17.80
2018,04,25,12,47,17.80
2018,04,25,12,48,17.80
2018,04,25,12,49,17.80
2018,04,25,12,50,17.80
2018,04,25,12,51,17.80
2018,04,25,12,52,17.80
2018,04,25,12,53,17.80
2018,04,25,12,54,17.80
2018,04,25,12,55,17.90
2018,04,25,12,56,17.90
2018,04,25,12,57,17.90
2018,04,25,12,58,17.90
2018,04,25,12,59,17.90
2018,04,25,13,00,17.90
2018,04,25,13,01,18.00
2018,04,25,13,02,18.00
2018,04,25,13,03,18.10
2018,04,25,13,04,18.10
2018,04,25,13,05,18.10
2018,04,25,13,06,18.20
2018,04,25,13,07,18.20
2018,04,25,13,08,18.20
2018,04,25,13,09,18.20
2018,04,25,13,10,18.20
2018,04,25,13,11,18.30
2018,04,25,13,12,18.30
2018,04,25,13,13,18.30
2018,04,25,13,14,18.40
2018,04,25,13,15,18.40
2018,04,25,13,16,18.40
2018,04,25,13,17,18.40
2018,04,25,13,18,18.40
2018,04,25,13,19,18.40
2018,04,25,13,20,18.40
2018,04,25,13,21,18.40
2018,04,25,13,22,18.40
2018,04,25,13,23,18.40
2018,04,25,13,24,18.40
2018,04,25,13,25,18.40
2018,04,25,13,26,18.40
2018,04,25,13,27,18.50
2018,04,25,13,28,18.50
2018,04,25,13,29,18.60
2018,04,25,13,30,18.60
2018,04,25,13,31,18.60
2018,04,25,13,32,18.60
2018,04,25,13,33,18.70
2018,04,25,13,34,18.70
2018,04,25,13,35,18.70
2018,04,25,13,36,18.70
2018,04,25,13,37,18.70
2018,04,25,13,38,18.80
2018,04,25,13,39,18.80
2018,04,25,13,40,18.80
2018,04,25,13,41,18.80
2018,04,25,13,42,18.90
2018,04,25,13,43,18.90
2018,04,25,13,44,18.90
2018,04,25,13,45,18.90
2018,04,25,13,46,19.00
2018,04,25,13,47,19.00
2018,04,25,13,48,19.10
2018,04,25,13,49,19.10
2018,04,25,13,50,19.20
2018,04,25,13,51,19.20
2018,04,25,13,52,19.20
2018,04,25,13,53,19.30
2018,04,25,13,54,19.30
2018,04,25,13,55,19.30
2018,04,25,13,56,19.40
2018,04,25,13,57,19.40
2018,04,25,13,58,19.40
2018,04,25,13,59,19.50
2018,04,25,14,00,19.50
2018,04,25,14,01,19.50
2018,04,25,14,02,19.50
2018,04,25,14,03,19.60
2018,04,25,14,04,19.60
2018,04,25,14,05,19.60
2018,04,25,14,06,19.60
2018,04,25,14,07,19.60
2018,04,25,14,08,19.60
2018,04,25,14,09,19.60
2018,04,25,14,10,19.70
2018,04,25,14,11,19.70
2018,04,25,14,12,19.80
2018,04,25,14,13,19.80
2018,04,25,14,14,19.90
2018,04,25,14,15,19.90
2018,04,25,14,16,19.90
2018,04,25,14,17,20.00
2018,04,25,14,18,20.00
2018,04,25,14,19,20.10
2018,04,25,14,20,20.10
2018,04,25,14,21,20.10
2018,04,25,14,22,20.20
2018,04,25,14,23,20.20
2018,04,25,14,24,20.20
2018,04,25,14,25,20.20
2018,04,25,14,26,20.30
2018,04,25,14,27,20.30
2018,04,25,14,28,20.40
2018,04,25,14,29,20.40
2018,04,25,14,30,20.50
2018,04,25,14,31,20.50
2018,04,25,14,32,20.60
2018,04,25,14,33,20.60
2018,04,25,14,34,20.60
2018,04,25,14,35,20.60
2018,04,25,14,36,20.70
2018,04,25,14,37,20.70
2018,04,25,14,38,20.70
2018,04,25,14,39,20.70
2018,04,25,14,40,20.70
2018,04,25,14,41,20.70
2018,04,25,14,42,20.70
2018,04,25,14,43,20.70
2018,04,25,14,44,20.70
2018,04,25,14,45,20.70
2018,04,25,14,46,20.70
2018,04,25,14,47,20.70
2018,04,25,14,48,20.70
2018,04,25,14,49,20.80
2018,04,25,14,50,20.70
2018,04,25,14,51,20.70
2018,04,25,14,52,20.70
2018,04,25,14,53,20.70
2018,04,25,14,54,20.70
2018,04,25,14,55,20.70
2018,04,25,14,56,20.80
2018,04,25,14,57,20.80
2018,04,25,14,58,20.90
2018,04,25,14,59,20.90
2018,04,25,15,00,20.90
2018,04,25,15,01,20.90
2018,04,25,15,02,20.90
2018,04,25,15,03,20.90
2018,04,25,15,04,20.90
2018,04,25,15,05,20.90
2018,04,25,15,06,20.90
2018,04,25,15,07,20.90
2018,04,25,15,08,21.00
2018,04,25,15,09,21.00
2018,04,25,15,10,21.00
2018,04,25,15,11,21.00
2018,04,25,15,12,21.00
2018,04,25,15,13,21.00
2018,04,25,15,14,21.00
2018,04,25,15,15,21.00
2018,04,25,15,16,21.00
2018,04,25,15,17,21.00
2018,04,25,15,18,21.00
2018,04,25,15,19,21.00
2018,04,25,15,20,21.00
2018,04,25,15,21,21.10
2018,04,25,15,22,21.10
2018,04,25,15,23,21.20
2018,04,25,15,24,21.20
2018,04,25,15,25,21.20
2018,04,25,15,26,21.30
2018,04,25,15,27,21.30
2018,04,25,15,28,21.30
2018,04,25,15,29,21.40
2018,04,25,15,30,21.40
2018,04,25,15,31,21.40
2018,04,25,15,32,21.40
2018,04,25,15,33,21.40
2018,04,25,15,34,21.40
2018,04,25,15,35,21.40
2018,04,25,15,36,21.50
2018,04,25,15,37,21.50
2018,04,25,15,38,21.50
2018,04,25,15,39,21.50
2018,04,25,15,40,21.60
2018,04,25,15,41,21.60
2018,04,25,15,42,21.60
2018,04,25,15,43,21.60
2018,04,25,15,44,21.60
2018,04,25,15,45,21.60
2018,04,25,15,46,21.60
2018,04,25,15,47,21.70
2018,04,25,15,48,21.70
2018,04,25,15,49,21.70
2018,04,25,15,50,21.80
2018,04,25,15,51,21.80
2018,04,25,15,52,21.90
2018,04,25,15,53,21.90
2018,04,25,15,54,21.90
2018,04,25,15,55,21.90
2018,04,25,15,56,21.90
2018,04,25,15,57,21.90
2018,04,25,15,58,21.90
2018,04,25,15,59,21.90
2018,04,25,16,00,21.90
2018,04,25,16,01,21.90
2018,04,25,16,02,21.90
2018,04,25,16,03,21.90
2018,04,25,16,04,21.90
2018,04,25,16,05,22.00
2018,04,25,16,06,22.00
2018,04,25,16,07,22.00
2018,04,25,16,08,22.00
2018,04,25,16,09,22.00
2018,04,25,16,10,22.10
2018,04,25,16,11,22.10
2018,04,25,16,12,22.10
2018,04,25,16,13,22.10
2018,04,25,16,14,22.10
2018,04,25,16,15,22.20
2018,04,25,16,16,22.20
2018,04,25,16,17,22.20
2018,04,25,16,18,22.20
2018,04,25,16,19,22.20
2018,04,25,16,20,22.20
2018,04,25,16,21,22.20
2018,04,25,16,22,22.20
2018,04,25,16,23,22.20
2018,04,25,16,24,22.20
2018,04,25,16,25,22.30
2018,04,25,16,26,22.30
2018,04,25,16,27,22.30
2018,04,25,16,28,22.40
2018,04,25,16,29,22.40
2018,04,25,16,30,22.30
2018,04,25,16,31,22.30
2018,04,25,16,32,22.40
2018,04,25,16,33,22.40
2018,04,25,16,34,22.40
2018,04,25,16,35,22.40
2018,04,25,16,36,22.40
2018,04,25,16,37,22.40
2018,04,25,16,38,22.40
2018,04,25,16,39,22.50
2018,04,25,16,40,22.50
2018,04,25,16,41,22.60
2018,04,25,16,42,22.60
2018,04,25,16,43,22.60
2018,04,25,16,44,22.60
2018,04,25,16,45,22.60
2018,04,25,16,46,22.70
2018,04,25,16,47,22.70
2018,04,25,16,48,22.60
2018,04,25,16,49,22.60
2018,04,25,16,50,22.60
2018,04,25,16,51,22.60
2018,04,25,16,52,22.60
2018,04,25,16,53,22.60
2018,04,25,16,54,22.70
2018,04,25,16,55,22.70
2018,04,25,16,56,22.70
2018,04,25,16,57,22.70
2018,04,25,16,58,22.70
2018,04,25,16,59,22.60
2018,04,25,17,00,22.60
2018,04,25,17,01,22.60
2018,04,25,17,02,22.40
2018,04,25,17,03,22.10
2018,04,25,17,04,21.70
2018,04,25,17,05,21.30
2018,04,25,17,06,20.80
2018,04,25,17,07,20.40
2018,04,25,17,08,20.10
2018,04,25,17,09,19.80
2018,04,25,17,10,19.50
2018,04,25,17,11,19.10
2018,04,25,17,12,18.70
2018,04,25,17,13,18.40
2018,04,25,17,14,18.10
2018,04,25,17,15,17.80
2018,04,25,17,16,17.60
2018,04,25,17,17,17.40
2018,04,25,17,18,17.30
2018,04,25,17,19,17.20
2018,04,25,17,20,17.10
2018,04,25,17,21,17.00
2018,04,25,17,22,16.90
2018,04,25,17,23,16.90
2018,04,25,17,24,16.80
2018,04,25,17,25,16.80
2018,04,25,17,26,16.70
2018,04,25,17,27,16.70
2018,04,25,17,28,16.70
2018,04,25,17,29,16.70
2018,04,25,17,30,16.70
2018,04,25,17,31,16.70
2018,04,25,17,32,16.60
2018,04,25,17,33,16.60
2018,04,25,17,34,16.60
2018,04,25,17,35,16.60
2018,04,25,17,36,16.60
2018,04,25,17,37,16.70
2018,04,25,17,38,16.70
2018,04,25,17,39,16.70
2018,04,25,17,40,16.70
2018,04,25,17,41,16.70
2018,04,25,17,42,16.70
2018,04,25,17,43,16.70
2018,04,25,17,44,16.70
2018,04,25,17,45,16.80
2018,04,25,17,46,16.80
2018,04,25,17,47,16.80
2018,04,25,17,48,16.80
2018,04,25,17,49,16.80
2018,04,25,17,50,16.80
2018,04,25,17,51,16.80
2018,04,25,17,52,16.80
2018,04,25,17,53,16.80
2018,04,25,17,54,16.80
2018,04,25,17,55,16.80
2018,04,25,17,56,16.80
2018,04,25,17,57,16.80
2018,04,25,17,58,16.80
2018,04,25,17,59,16.80
2018,04,25,18,00,16.80
2018,04,25,18,01,16.80
2018,04,25,18,02,16.70
2018,04,25,18,03,16.70
2018,04,25,18,04,16.70
2018,04,25,18,05,16.70
2018,04,25,18,06,16.70
2018,04,25,18,07,16.70
2018,04,25,18,08,16.70
2018,04,25,18,09,16.70
2018,04,25,18,10,16.70
2018,04,25,18,11,16.70
2018,04,25,18,12,16.70
2018,04,25,18,13,16.70
2018,04,25,18,14,16.70
2018,04,25,18,15,16.70
2018,04,25,18,16,16.70
2018,04,25,18,17,16.70
2018,04,25,18,18,16.70
2018,04,25,18,19,16.70
2018,04,25,18,20,16.80
2018,04,25,18,21,16.80
2018,04,25,18,22,16.70
2018,04,25,18,23,16.70
2018,04,25,18,24,16.70
2018,04,25,18,25,16.70
2018,04,25,18,26,16.70
2018,04,25,18,27,16.70
2018,04,25,18,28,16.70
2018,04,25,18,29,16.70
2018,04,25,18,30,16.70
2018,04,25,18,31,16.70
2018,04,25,18,32,16.70
2018,04,25,18,33,16.70
2018,04,25,18,34,16.70
2018,04,25,18,35,16.70
2018,04,25,18,36,16.70
2018,04,25,18,37,16.70
2018,04,25,18,38,16.70
2018,04,25,18,39,16.70
2018,04,25,18,40,16.70
2018,04,25,18,41,16.70
2018,04,25,18,42,16.70
2018,04,25,18,43,16.70
2018,04,25,18,44,16.60
2018,04,25,18,45,16.60
2018,04,25,18,46,16.60
2018,04,25,18,47,16.50
2018,04,25,18,48,16.50
2018,04,25,18,49,16.40
2018,04,25,18,50,16.40
2018,04,25,18,51,16.40
2018,04,25,18,52,16.40
2018,04,25,18,53,16.40
2018,04,25,18,54,16.30
2018,04,25,18,55,16.30
2018,04,25,18,56,16.30
2018,04,25,18,57,16.30
2018,04,25,18,58,16.30
2018,04,25,18,59,16.30
2018,04,25,19,00,16.30
2018,04,25,19,01,16.30
2018,04,25,19,02,16.30
2018,04,25,19,03,16.30
2018,04,25,19,04,16.30
2018,04,25,19,05,16.30
2018,04,25,19,06,16.30
2018,04,25,19,07,16.30
2018,04,25,19,08,16.30
2018,04,25,19,09,16.40
2018,04,25,19,10,16.40
2018,04,25,19,11,16.40
2018,04,25,19,12,16.40
2018,04,25,19,13,16.50
2018,04,25,19,14,16.50
2018,04,25,19,15,16.60
2018,04,25,19,16,16.60
2018,04,25,19,17,16.60
2018,04,25,19,18,16.70
2018,04,25,19,19,16.70
2018,04,25,19,20,16.70
2018,04,25,19,21,16.70
2018,04,25,19,22,16.80
2018,04,25,19,23,16.80
2018,04,25,19,24,16.80
2018,04,25,19,25,16.80
2018,04,25,19,26,16.90
2018,04,25,19,27,16.90
2018,04,25,19,28,16.90
2018,04,25,19,29,16.90
2018,04,25,19,30,16.90
2018,04,25,19,31,16.90
2018,04,25,19,32,16.90
2018,04,25,19,33,16.90
2018,04,25,19,34,16.90
2018,04,25,19,35,16.90
2018,04,25,19,36,16.90
2018,04,25,19,37,16.90
2018,04,25,19,38,16.90
2018,04,25,19,39,16.90
2018,04,25,19,40,16.90
2018,04,25,19,41,16.90
2018,04,25,19,42,16.90
2018,04,25,19,43,16.90
2018,04,25,19,44,16.80
2018,04,25,19,45,16.90
2018,04,25,19,46,16.80
2018,04,25,19,47,16.90
2018,04,25,19,48,16.90
2018,04,25,19,49,16.90
2018,04,25,19,50,16.90
2018,04,25,19,51,16.90
2018,04,25,19,52,16.90
2018,04,25,19,53,16.90
2018,04,25,19,54,16.90
2018,04,25,19,55,16.90
2018,04,25,19,56,16.90
2018,04,25,19,57,16.80
2018,04,25,19,58,16.80
2018,04,25,19,59,16.80
2018,04,25,20,00,16.80
2018,04,25,20,01,16.80
2018,04,25,20,02,16.80
2018,04,25,20,03,16.80
2018,04,25,20,04,16.80
2018,04,25,20,05,16.70
2018,04,25,20,06,16.70
2018,04,25,20,07,16.60
2018,04,25,20,08,16.60
2018,04,25,20,09,16.50
2018,04,25,20,10,16.40
2018,04,25,20,11,16.40
2018,04,25,20,12,16.30
2018,04,25,20,13,16.30
2018,04,25,20,14,16.20
2018,04,25,20,15,16.20
2018,04,25,20,16,16.10
2018,04,25,20,17,16.00
2018,04,25,20,18,16.00
2018,04,25,20,19,15.90
2018,04,25,20,20,15.90
2018,04,25,20,21,15.80
2018,04,25,20,22,15.70
2018,04,25,20,23,15.70
2018,04,25,20,24,15.60
2018,04,25,20,25,15.60
2018,04,25,20,26,15.50
2018,04,25,20,27,15.50
2018,04,25,20,28,15.40
2018,04,25,20,29,15.40
2018,04,25,20,30,15.30
2018,04,25,20,31,15.30
2018,04,25,20,32,15.30
2018,04,25,20,33,15.20
2018,04,25,20,34,15.20
2018,04,25,20,35,15.20
2018,04,25,20,36,15.20
2018,04,25,20,37,15.20
2018,04,25,20,38,15.20
2018,04,25,20,39,15.20
2018,04,25,20,40,15.20
2018,04,25,20,41,15.20
2018,04,25,20,42,15.20
2018,04,25,20,43,15.20
2018,04,25,20,44,15.20
2018,04,25,20,45,15.10
2018,04,25,20,46,15.10
2018,04,25,20,47,15.10
2018,04,25,20,48,15.10
2018,04,25,20,49,15.10
2018,04,25,20,50,15.10
2018,04,25,20,51,15.10
2018,04,25,20,52,15.10
2018,04,25,20,53,15.10
2018,04,25,20,54,15.00
2018,04,25,20,55,15.00
2018,04,25,20,56,15.00
2018,04,25,20,57,14.90
2018,04,25,20,58,14.90
2018,04,25,20,59,14.80
2018,04,25,21,00,14.80
2018,04,25,21,01,14.70
2018,04,25,21,02,14.70
2018,04,25,21,03,14.70
2018,04,25,21,04,14.70
2018,04,25,21,05,14.60
2018,04,25,21,06,14.60
2018,04,25,21,07,14.60
2018,04,25,21,08,14.60
2018,04,25,21,09,14.60
2018,04,25,21,10,14.60
2018,04,25,21,11,14.50
2018,04,25,21,12,14.50
2018,04,25,21,13,14.40
2018,04,25,21,14,14.40
2018,04,25,21,15,14.40
2018,04,25,21,16,14.40
2018,04,25,21,17,14.40
2018,04,25,21,18,14.30
2018,04,25,21,19,14.30
2018,04,25,21,20,14.30
2018,04,25,21,21,14.30
2018,04,25,21,22,14.30
2018,04,25,21,23,14.20
2018,04,25,21,24,14.20
2018,04,25,21,25,14.20
2018,04,25,21,26,14.20
2018,04,25,21,27,14.10
2018,04,25,21,28,14.10
2018,04,25,21,29,14.10
2018,04,25,21,30,14.10
2018,04,25,21,31,14.10
2018,04,25,21,32,14.10
2018,04,25,21,33,14.10
2018,04,25,21,34,14.10
2018,04,25,21,35,14.10
2018,04,25,21,36,14.00
2018,04,25,21,37,14.00
2018,04,25,21,38,14.00
2018,04,25,21,39,13.90
2018,04,25,21,40,13.90
2018,04,25,21,41,13.90
2018,04,25,21,42,13.90
2018,04,25,21,43,13.90
2018,04,25,21,44,13.90
2018,04,25,21,45,13.80
2018,04,25,21,46,13.80